User: anonymous   Login
Location: Lac Lasalle
(46.0398°N, 74.1576°W)
Time: 12:17:14
(UTC-05:00)
Language:

PCSat - Orbit

View from above orbital plane
View from above orbital plane
View from above satellite
View from above satellite

Ground track
Ground track

The orbit data is extracted from the following two-line orbital elements,

1 26931U 01043C   19345.82354513 -.00000054  00000-0  11047-4 0  9999
2 26931  67.0516 269.1682 0007167 264.3679  95.6605 14.30561244950162
Epoch (UTC): 11 December 2019 19:45:54
Eccentricity: 0.0007167
inclination: 67.0516°
perigee height: 785 km
apogee height: 795 km
right ascension of ascending node: 269.1682°
argument of perigee: 264.3679°
revolutions per day: 14.30561244
mean anomaly at epoch: 95.6605°
orbit number at epoch: 95016

The dashed part of the orbit path shows where the satellite is in the earth's shadow,  

DLR